• In Hungary
  • List of Countries
  • For 7 days
  • Water Temperature
  • Satellite Maps
  • Weather Map
  • News
  • Weather Widgets
  • user-avatar
    Login

    Hourly Weather Mashkovo-Surena

    Today, 18 August, Saturday

    Time Temperature Precipitation Wind Pressure Humidity
    00:00 +16°C° 0 mm 3 mps 752 mmHg 80%
    01:00 +16°C° 0 mm 3 mps 752 mmHg 81%
    02:00 +14°C° 0 mm 3 mps 752 mmHg 82%
    03:00 +15°C° 0 mm 2 mps 752 mmHg 85%
    04:00 +15°C° 0 mm 2 mps 752 mmHg 85%
    05:00 +15°C° 0 mm 2 mps 753 mmHg 85%
    06:00 +15°C° 0 mm 2 mps 753 mmHg 86%
    07:00 +17°C° 0 mm 3 mps 753 mmHg 78%
    08:00 +18°C° 0 mm 3 mps 753 mmHg 71%
    09:00 +20°C° 0 mm 3 mps 753 mmHg 64%
    10:00 +21°C° 0 mm 3 mps 753 mmHg 59%
    11:00 +22°C° 0 mm 4 mps 753 mmHg 54%
    12:00 +23°C° 0 mm 4 mps 753 mmHg 49%
    13:00 +25°C° 0 mm 4 mps 753 mmHg 47%
    14:00 +25°C° 0 mm 3 mps 753 mmHg 46%
    15:00 +25°C° 0 mm 3 mps 753 mmHg 44%
    16:00 +25°C° 0 mm 3 mps 753 mmHg 47%
    17:00 +24°C° 0 mm 3 mps 753 mmHg 50%
    18:00 +24°C° 0 mm 2 mps 753 mmHg 54%
    19:00 +21°C° 0 mm 2 mps 753 mmHg 57%
    20:00 +19°C° 0 mm 2 mps 753 mmHg 61%
    21:00 +18°C° 0 mm 2 mps 753 mmHg 65%
    22:00 +17°C° 0 mm 2 mps 753 mmHg 67%
    23:00 +16°C° 0 mm 2 mps 753 mmHg 68%

    Tomorrow, 19 August, Sunday

    Time Temperature Precipitation Wind Pressure Humidity
    00:00 +16°C° 0 mm 2 mps 754 mmHg 70%
    01:00 +15°C° 0 mm 1 mps 754 mmHg 71%
    02:00 +15°C° 0 mm 1 mps 754 mmHg 73%
    03:00 +14°C° 0 mm 1 mps 754 mmHg 74%
    04:00 +14°C° 0 mm 1 mps 754 mmHg 75%
    05:00 +14°C° 0 mm 1 mps 754 mmHg 76%
    06:00 +14°C° 0 mm 1 mps 754 mmHg 77%
    07:00 +16°C° 0 mm 1 mps 754 mmHg 70%
    08:00 +19°C° 0 mm 1 mps 754 mmHg 64%
    09:00 +21°C° 0 mm 1 mps 754 mmHg 57%
    10:00 +22°C° 0 mm 1 mps 754 mmHg 53%
    11:00 +23°C° 0 mm 1 mps 754 mmHg 49%
    12:00 +24°C° 0 mm 2 mps 754 mmHg 45%
    13:00 +25°C° 0 mm 1 mps 753 mmHg 43%
    14:00 +25°C° 0 mm 1 mps 753 mmHg 41%
    15:00 +26°C° 0 mm 1 mps 753 mmHg 39%
    16:00 +25°C° 0 mm 1 mps 752 mmHg 42%
    17:00 +25°C° 0 mm 1 mps 752 mmHg 44%
    18:00 +25°C° 0 mm 1 mps 752 mmHg 47%
    19:00 +23°C° 0 mm 1 mps 752 mmHg 50%
    20:00 +21°C° 0 mm 1 mps 752 mmHg 52%
    21:00 +20°C° 0 mm 1 mps 752 mmHg 55%
    22:00 +19°C° 0 mm 1 mps 752 mmHg 57%
    23:00 +18°C° 0 mm 2 mps 752 mmHg 58%

    Day after tomorrow, 20 August, Monday

    Time Temperature Precipitation Wind Pressure Humidity
    00:00 +17°C° 0 mm 2 mps 752 mmHg 59%
    01:00 +17°C° 0 mm 2 mps 751 mmHg 60%
    02:00 +16°C° 0 mm 2 mps 751 mmHg 62%
    03:00 +16°C° 0 mm 2 mps 751 mmHg 63%
    04:00 +16°C° 0 mm 2 mps 751 mmHg 64%
    05:00 +15°C° 0 mm 2 mps 751 mmHg 66%
    06:00 +15°C° 0 mm 2 mps 751 mmHg 67%
    07:00 +17°C° 0 mm 2 mps 751 mmHg 62%
    08:00 +19°C° 0 mm 3 mps 751 mmHg 57%
    09:00 +21°C° 0 mm 3 mps 751 mmHg 52%
    10:00 +24°C° 0 mm 3 mps 751 mmHg 49%
    11:00 +25°C° 0 mm 3 mps 751 mmHg 45%
    12:00 +27°C° 0 mm 3 mps 751 mmHg 42%
    13:00 +27°C° 0 mm 4 mps 750 mmHg 41%
    14:00 +27°C° 0 mm 4 mps 750 mmHg 40%
    15:00 +28°C° 0 mm 4 mps 749 mmHg 40%
    16:00 +27°C° 0 mm 3 mps 749 mmHg 43%
    17:00 +27°C° 0 mm 3 mps 749 mmHg 47%
    18:00 +26°C° 0 mm 3 mps 749 mmHg 50%
    19:00 +25°C° 0 mm 3 mps 749 mmHg 53%
    20:00 +22°C° 0 mm 3 mps 749 mmHg 55%
    21:00 +21°C° 0 mm 3 mps 749 mmHg 58%
    22:00 +20°C° 0 mm 3 mps 749 mmHg 59%
    23:00 +20°C° 0 mm 3 mps 748 mmHg 59%

    21 August, Tuesday

    Time Temperature Precipitation Wind Pressure Humidity
    00:00 +19°C° 0 mm 3 mps 748 mmHg 60%
    01:00 +19°C° 0 mm 3 mps 748 mmHg 61%
    02:00 +19°C° 0 mm 3 mps 748 mmHg 61%
    03:00 +18°C° 0 mm 3 mps 748 mmHg 62%
    04:00 +18°C° 0 mm 3 mps 748 mmHg 64%
    05:00 +18°C° 0 mm 3 mps 748 mmHg 66%
    06:00 +18°C° 0 mm 3 mps 748 mmHg 67%
    07:00 +19°C° 0 mm 3 mps 748 mmHg 63%
    08:00 +21°C° 0 mm 4 mps 748 mmHg 58%
    09:00 +23°C° 0 mm 4 mps 748 mmHg 54%
    10:00 +25°C° 0 mm 5 mps 748 mmHg 50%
    11:00 +27°C° 0 mm 5 mps 748 mmHg 47%
    12:00 +28°C° 0 mm 6 mps 747 mmHg 44%
    13:00 +29°C° 0 mm 6 mps 747 mmHg 42%
    14:00 +29°C° 0 mm 6 mps 747 mmHg 41%
    15:00 +30°C° 0 mm 6 mps 746 mmHg 40%
    16:00 +29°C° 0 mm 5 mps 746 mmHg 44%
    17:00 +28°C° 0 mm 5 mps 746 mmHg 47%
    18:00 +28°C° 0 mm 4 mps 745 mmHg 50%
    19:00 +26°C° 0 mm 4 mps 745 mmHg 51%
    20:00 +25°C° 0 mm 4 mps 745 mmHg 52%
    21:00 +23°C° 0 mm 5 mps 745 mmHg 53%
    22:00 +23°C° 0 mm 5 mps 745 mmHg 53%
    23:00 +23°C° 0 mm 5 mps 744 mmHg 52%

    22 August, Wednesday

    Time Temperature Precipitation Wind Pressure Humidity
    00:00 +22°C° 0 mm 6 mps 744 mmHg 52%
    01:00 +22°C° 0.1 mm 5 mps 744 mmHg 55%
    02:00 +21°C° 0.1 mm 5 mps 744 mmHg 58%
    03:00 +21°C° 0.1 mm 5 mps 744 mmHg 61%
    04:00 +20°C° 0.2 mm 5 mps 744 mmHg 69%
    05:00 +19°C° 0.2 mm 4 mps 745 mmHg 76%
    06:00 +19°C° 0.2 mm 4 mps 745 mmHg 83%
    07:00 +19°C° 0 mm 5 mps 745 mmHg 78%
    08:00 +19°C° 0 mm 5 mps 746 mmHg 73%
    09:00 +20°C° 0 mm 5 mps 746 mmHg 68%
    10:00 +20°C° 0 mm 5 mps 746 mmHg 60%
    11:00 +21°C° 0 mm 5 mps 747 mmHg 52%
    12:00 +22°C° 0 mm 5 mps 747 mmHg 45%
    13:00 +22°C° 0 mm 5 mps 747 mmHg 43%
    14:00 +23°C° 0 mm 6 mps 748 mmHg 42%
    15:00 +23°C° 0 mm 6 mps 748 mmHg 41%
    16:00 +22°C° 0 mm 5 mps 748 mmHg 44%
    17:00 +22°C° 0 mm 4 mps 748 mmHg 47%
    18:00 +21°C° 0 mm 3 mps 749 mmHg 51%
    19:00 +20°C° 0 mm 3 mps 749 mmHg 55%
    20:00 +18°C° 0 mm 3 mps 750 mmHg 59%
    21:00 +17°C° 0 mm 2 mps 750 mmHg 64%
    22:00 +16°C° 0 mm 2 mps 750 mmHg 66%
    23:00 +15°C° 0 mm 2 mps 750 mmHg 69%

    23 August, Thursday

    Time Temperature Precipitation Wind Pressure Humidity
    00:00 +15°C° 0 mm 2 mps 751 mmHg 71%
    01:00 +14°C° 0 mm 2 mps 751 mmHg 73%
    02:00 +14°C° 0 mm 2 mps 751 mmHg 74%
    03:00 +13°C° 0 mm 2 mps 751 mmHg 76%
    04:00 +13°C° 0 mm 2 mps 751 mmHg 77%
    05:00 +13°C° 0 mm 2 mps 752 mmHg 78%
    06:00 +12°C° 0 mm 2 mps 752 mmHg 79%
    07:00 +14°C° 0 mm 2 mps 752 mmHg 71%
    08:00 +16°C° 0 mm 2 mps 752 mmHg 64%
    09:00 +18°C° 0 mm 2 mps 752 mmHg 56%
    10:00 +19°C° 0 mm 2 mps 752 mmHg 51%
    11:00 +20°C° 0 mm 2 mps 752 mmHg 46%
    12:00 +21°C° 0 mm 3 mps 752 mmHg 41%
    13:00 +21°C° 0 mm 3 mps 752 mmHg 39%
    14:00 +22°C° 0 mm 3 mps 752 mmHg 37%
    15:00 +22°C° 0 mm 3 mps 752 mmHg 35%
    16:00 +22°C° 0 mm 3 mps 751 mmHg 39%
    17:00 +21°C° 0 mm 2 mps 751 mmHg 42%
    18:00 +21°C° 0 mm 2 mps 751 mmHg 45%
    19:00 +19°C° 0 mm 2 mps 751 mmHg 47%
    20:00 +19°C° 0 mm 1 mps 751 mmHg 50%
    21:00 +16°C° 0 mm 1 mps 751 mmHg 53%
    22:00 +15°C° 0 mm 1 mps 751 mmHg 54%
    23:00 +15°C° 0 mm 1 mps 751 mmHg 55%
    Show more